Overview Statistics Trail Chart Weather Telemetry Raw packets
 

This is the latest recevied weather packets stored in our database for station/object DL4MGC-10. If no packets are shown the sender has not sent any weather packets the latest 10 day(s).

<< 25 26 27 28 29 30 31 >>
Time Temp. Humidity Pressure Rain* Wind** Luminosity Snow
1788104499 27.22° C 59% 1015 hPa - - - -
1788103599 27.78° C 59% 1015 hPa - - - -
1788102699 27.78° C 58% 1015.1 hPa - - - -
1788101799 27.78° C 59% 1015 hPa - - - -
1788100899 28.33° C 58% 1015.2 hPa - - - -
1788099999 27.78° C 58% 1015.3 hPa - - - -
1788099098 27.78° C 58% 1015.3 hPa - - - -
1788098198 28.33° C 57% 1015.4 hPa - - - -
1788097298 28.33° C 57% 1015.6 hPa - - - -
1788096398 27.78° C 57% 1015.7 hPa - - - -
1788095498 27.78° C 58% 1015.7 hPa - - - -
1788094598 28.33° C 58% 1015.9 hPa - - - -
1788093698 27.78° C 58% 1016 hPa - - - -
1788092798 27.22° C 61% 1016 hPa - - - -
1788091898 27.22° C 60% 1016.1 hPa - - - -
1788090997 26.11° C 63% 1016.3 hPa - - - -
1788090097 27.22° C 62% 1016.3 hPa - - - -
1788089197 25.56° C 64% 1016.4 hPa - - - -
1788088297 26.11° C 63% 1016.6 hPa - - - -
1788087397 26.67° C 62% 1016.7 hPa - - - -
1788086497 26.67° C 63% 1016.9 hPa - - - -
1788085597 25.56° C 66% 1016.9 hPa - - - -
1788084697 25° C 67% 1017.1 hPa - - - -
1788083797 26.11° C 65% 1017 hPa - - - -
1788082896 25° C 66% 1017.1 hPa - - - -

* Rain since midnight (hover to see other rain measurements)
** Current wind speed in m/s (hover to see current wind gust speed)